[[{"header":{"parameterUnit":"m.s-1","parameterCategory":1,"la1":30.2992,"la2":30.254,"lo1":-89.0895,"lo2":-89.0443,"dy":0.0025,"dx":0.0025,"nx":19,"ny":19,"refTime":"2026-03-21T09:00:00:Z","depth":0,"parameterNumber":2,"parameterNumberName":"U-component_of_WINDS"},"data":[0,0,0,5.1944,5.1949,5.2149,5.215,5.2426,5.2429,0,0,0,0,0,0,0,0,0,0,0,5.1898,5.19,5.1944,5.1949,5.2149,5.215,5.2426,5.2429,0,0,0,0,0,0,0,0,0,0,0,5.1897,5.1899,5.1902,5.195,5.2149,5.215,5.2425,5.2267,0,0,0,0,0,0,0,0,0,0,5.2069,5.2039,5.1899,5.1902,5.1951,5.2149,5.215,5.2259,5.2277,5.2345,0,5.2408,0,5.2423,5.2449,5.245,0,0,0,5.194,5.2024,5.2066,5.1903,5.1953,5.2148,5.2056,5.2269,5.2289,5.2368,5.2412,5.2422,5.2428,5.2451,5.2452,5.2871,5.2874,0,0,5.1929,5.1941,5.2052,5.208,5.205,5.205,5.2063,5.2281,5.2329,5.2413,5.2428,5.2432,5.2453,5.2455,5.2869,5.2872,0,0,0,5.1903,5.1934,5.197,5.2069,5.2103,5.2056,5.207,5.2319,5.233,5.2431,5.2435,5.2454,5.2458,5.2867,5.287,5.2998,0,0,0,5.1896,5.1918,5.1965,5.1975,5.21,5.2214,5.2105,5.2315,5.2339,5.2434,5.2455,5.2461,5.2864,5.2869,5.2989,5.3057,0,0,0,5.188,5.1916,5.195,5.1975,5.2061,5.221,5.2233,5.232,5.2343,5.245,5.2462,5.2862,5.2868,5.2981,5.3044,5.3169,0,0,0,5.1867,5.2063,5.1952,5.2173,5.206,5.2288,5.2232,5.2402,5.2509,5.2456,5.2864,5.287,5.2978,5.3035,5.316,5.3276,5.3325,0,0,5.2121,5.2094,5.2223,5.2129,5.238,5.2257,5.2526,5.2614,5.2614,5.2786,5.2796,5.2992,5.3043,5.3167,5.3601,5.3641,0,0,0,5.2307,5.24,5.2464,5.2566,5.2636,5.2702,5.2747,5.2779,5.2923,5.2705,5.3072,5.3102,5.3174,5.3229,5.3262,5.3323,5.2896,5.2895,5.2895,5.2684,5.2672,5.2883,5.2894,5.2994,5.3037,5.3116,5.3166,5.3127,5.3213,5.3264,5.3529,5.3593,5.3618,5.3681,5.3325,5.3326,5.3326,5.3326,5.3054,5.3182,5.3122,5.3305,5.329,5.3444,5.3492,5.3459,5.3599,5.349,5.3554,5.3435,5.3662,5.3716,5.3336,5.3334,5.3333,5.3332,5.3331,5.3298,5.3357,5.3392,5.3535,5.3648,5.3652,5.3789,5.3772,5.3756,5.3819,5.3869,5.3867,5.3861,5.3844,5.3845,5.3846,5.3847,5.3847,5.3848,5.3537,5.3572,5.3689,5.3779,5.384,5.3919,5.3962,5.4022,5.4084,5.406,5.4061,5.4011,5.3687,5.3604,5.3862,5.386,5.3858,5.3857,5.3856,5.3914,5.3826,5.4007,5.4068,5.417,5.4281,5.4256,5.438,5.4427,5.4494,5.4431,5.4194,5.4166,5.4139,5.4071,5.4434,5.4434,5.4434,5.4434,5.4119,5.4103,5.4282,5.4381,5.4476,5.4471,5.4674,5.4709,5.4731,5.4759,5.4704,5.4612,5.4586,5.4573,5.4537,5.4472,5.4929,5.493,5.493,5.4349,5.434,5.4517,5.4536,5.4614,5.4681,5.487,5.4986,5.4992,5.495,5.4779,5.4758,5.461,5.4563,5.4517,5.4461,5.4343,0,0]},{"header":{"parameterUnit":"m.s-1","parameterCategory":1,"la1":30.2992,"la2":30.254,"lo1":-89.0895,"lo2":-89.0443,"dy":0.0025,"dx":0.0025,"nx":19,"ny":19,"refTime":"2026-03-21T09:00:00:Z","depth":0,"parameterNumber":3,"parameterNumberName":"V-component_of_WINDS"},"data":[0,0,0,3.9482,3.9487,3.9696,3.9696,3.9958,3.996,0,0,0,0,0,0,0,0,0,0,0,3.9419,3.9421,3.9482,3.9487,3.9695,3.9696,3.9958,3.996,0,0,0,0,0,0,0,0,0,0,0,3.9418,3.9421,3.9423,3.9488,3.9695,3.9697,3.9957,3.9801,0,0,0,0,0,0,0,0,0,0,3.9599,3.954,3.942,3.9423,3.9489,3.9695,3.9697,3.9794,3.9811,3.9862,0,3.9908,0,3.9939,3.9978,3.9979,0,0,0,3.9488,3.9526,3.9583,3.9423,3.9491,3.9695,3.9602,3.9803,3.9823,3.9885,3.9912,3.9922,3.9943,3.9979,3.9981,4.0275,4.0276,0,0,3.9477,3.9456,3.957,3.9596,3.9565,3.9595,3.9608,3.9815,3.9843,3.9913,3.9928,3.9947,3.9981,3.9983,4.0273,4.0275,0,0,0,3.9443,3.9448,3.95,3.9585,3.9623,3.9601,3.9616,3.9834,3.9853,3.9931,3.995,3.9983,3.9986,4.0272,4.0274,4.032,0,0,0,3.9436,3.9428,3.9495,3.9485,3.9619,3.9732,3.963,3.9839,3.9863,3.9949,3.9983,3.9988,4.027,4.0273,4.0316,4.0346,0,0,0,3.9406,3.9425,3.9455,3.9483,3.9572,3.9729,3.976,3.9844,3.9875,3.9979,3.9989,4.027,4.0272,4.0312,4.034,4.0417,0,0,0,3.9368,3.9493,3.9455,3.9602,3.957,3.9756,3.9758,3.9898,3.9993,3.9984,4.0271,4.0274,4.0311,4.0336,4.0413,4.0479,4.0504,0,0,3.9514,3.951,3.9598,3.957,3.9757,3.9726,3.992,4.0026,4.0054,4.0199,4.0206,4.0317,4.0339,4.0416,4.0654,4.0674,0,0,0,3.9637,3.97,3.9754,3.9844,3.9928,4.0002,4.0081,4.012,4.0244,4.0125,4.0367,4.038,4.0426,4.0459,4.0476,4.0516,4.0288,4.0287,4.0287,3.9815,3.9844,3.9991,4.0045,4.0132,4.0211,4.0283,4.0349,4.0354,4.041,4.0454,4.0595,4.0632,4.0645,4.0687,4.049,4.0491,4.0491,4.0491,4.0032,4.0126,4.0127,4.027,4.03,4.042,4.05,4.0498,4.0613,4.0565,4.0606,4.0551,4.0666,4.0704,4.0495,4.0494,4.0493,4.0493,4.0493,4.0152,4.0202,4.0247,4.0379,4.0476,4.0526,4.0636,4.0659,4.0681,4.0722,4.077,4.0769,4.0771,4.0743,4.0744,4.0744,4.0744,4.0745,4.0745,4.026,4.0309,4.04,4.0498,4.0558,4.0639,4.0718,4.0777,4.0847,4.0855,4.0855,4.0853,4.0672,4.0626,4.0753,4.0752,4.0751,4.075,4.0749,4.047,4.0425,4.0566,4.0626,4.0742,4.0836,4.0863,4.098,4.1032,4.1085,4.1074,4.0936,4.0933,4.092,4.0882,4.1067,4.1067,4.1067,4.1067,4.0572,4.0572,4.072,4.0813,4.0907,4.0945,4.1101,4.1162,4.1218,4.1252,4.1228,4.1179,4.1164,4.117,4.1151,4.1116,4.1358,4.1358,4.1358,4.0702,4.0712,4.0842,4.0897,4.0989,4.1066,4.1213,4.1319,4.1373,4.137,4.1278,4.1266,4.1188,4.1161,4.1157,4.1127,4.1063,0,0]}]]